STARLINK-2727 (48652 NORAD) Tracking and Keplerian Element Data

This shows tracking and keplerian element data for the satellite.

Feedback or suggestion? Click here.




ElementValue
Catalog48652
NameSTARLINK-2727
Epoch Orbit990
Epoch Day210.7987788
Epoch Year2021
RAAN120.8882
Inclination53.0535
Eccentricity0.000199
Argument of Perigee84.1246
Mean Anonmoly275.997
Mean Motion15.06401617
Decay Rate9.32E-06
L11 48652U 21044Q 21210.79877880 .00000932 00000-0 81484-4 0 9999
L22 48652 53.0535 120.8882 0001990 84.1246 275.9970 15.06401617 9909

Live tracking and technical data element details for STARLINK-2727 (NORAD 48652). STARLINK-2727 can be tracked NOW for your location showing map with azimuth and elevation plus other details from your city location.

Track the satellite on the map from your city or location and see movement details for azimuth, elevation, latitude, longitude, range, height, and movement on the map or in text.







IsCatalogInMostPopularTable: catalog: 48652, numindb: 13
Update: records affected: 1



GetName: 48652 STARLINK-2727

Hit Count: updated at: Sat, 31 Jul 2021 15:18:30 GMT